Location: Oberkirch
(48.5323°N, 8.0787°E)
Time: 21:23:14
(UTC+00:00)

Tiros 1 - Pass Details

Date: 24 February 2026
Orbit: 618 x 649 km, 48.4° (Epoch: 7 March)

Event Time Altitude Azimuth Distance (km) Brightness Sun altitude
Rises 10:31:09 0° 284° (WNW) 2,908 10.2 30.1°
Reaches altitude 10° 10:33:32 10° 279° (W) 1,995 9.5 30.2°
Maximum altitude 10:37:57 50° 204° (SSW) 793 8.7 30.5°
Drops below altitude 10° 10:42:21 10° 129° (SE) 1,977 10.6 30.7°
Sets 10:44:41 0° 125° (SE) 2,879 11.2 30.8°
